DateTimeUTC,F1_A11,F1_S11,BsB_S11,BsG_S11,BsR_S11,BbsB_S11,BbsG_S11,BbsR_S11,BaB_A11,BaG_A11,BaR_A11,Tu_S11,T_S11,Uu_S11,U_S11,P_S11,T1_A11
2021-03-07T21:00:00Z,00000200,21000000,,,,,,,0000.21,0000.35,0000.23,17.0,24.5,,00.0,0651.2,30.9
2021-03-07T21:01:00Z,00000200,21000000,,,,,,,-000.26,-000.35,-000.25,16.9,24.5,,00.0,0651.2,30.9
2021-03-07T21:02:00Z,00000200,21000000,,,,,,,0000.38,0000.21,0000.38,16.9,24.5,,00.0,0651.2,30.9
2021-03-07T21:03:00Z,00000200,61000000,,,,,,,0000.00,0000.05,0000.28,16.9,24.5,,00.0,0651.2,30.9
2021-03-07T21:04:00Z,00000200,41000000,0000.14,0000.07,0000.20,0000.08,0000.15,0000.06,-000.22,-000.07,-000.33,17.0,24.2,,00.0,0652.0,30.9
2021-03-07T21:05:00Z,00000200,01000000,0000.49,-000.02,0000.19,0000.14,0000.05,0000.16,0000.10,0000.20,0000.17,17.1,24.1,,00.0,0652.1,30.9
2021-03-07T21:06:00Z,00000200,01000000,0000.44,0000.41,0000.32,-000.10,-000.00,0000.27,0000.52,0000.14,0000.26,17.0,24.1,,00.0,0652.1,30.9
2021-03-07T21:07:00Z,00000200,01000000,0000.45,0000.38,0000.06,0000.33,0000.10,0000.07,0000.23,0000.14,-000.00,17.0,24.1,00.0,00.0,0652.1,30.9
2021-03-07T21:08:00Z,00000200,01000000,0000.13,0000.32,0000.13,0000.12,0000.13,0000.00,-000.03,0000.03,-000.25,17.0,24.1,00.0,00.0,0652.1,30.9
2021-03-07T21:09:00Z,00000200,01000000,0000.45,0000.08,0000.14,0000.41,-000.05,0000.13,-000.07,0000.16,0000.47,17.0,24.1,00.0,00.0,0652.1,30.9
2021-03-07T21:10:00Z,00000200,01000000,0000.37,0000.22,0000.05,0000.45,-000.05,0000.20,0000.01,0000.18,-000.10,17.0,24.0,,00.0,0652.1,30.9
2021-03-07T21:11:00Z,00000200,01000000,0000.41,0000.29,0000.15,0000.44,0000.03,0000.04,0000.25,-000.06,0000.14,17.0,24.0,,00.0,0652.0,30.9
2021-03-07T21:12:00Z,00000200,01000000,0000.25,0000.30,0000.18,0000.17,0000.08,0000.00,-000.06,-000.16,-000.03,16.9,24.0,,00.0,0652.0,30.9
2021-03-07T21:13:00Z,00000200,01000000,0000.50,0000.47,0000.14,0000.08,0000.10,-000.08,0000.10,0000.22,0000.44,16.9,24.0,,00.0,0652.0,30.9
2021-03-07T21:14:00Z,00000200,01000000,0000.15,0000.24,0000.15,0000.09,0000.11,-000.16,-000.10,-000.03,-000.19,16.9,24.0,00.0,00.0,0652.0,30.9
2021-03-07T21:15:00Z,00000200,01000000,0000.42,0000.18,0000.19,0000.79,0000.06,0000.05,0000.37,0000.31,0000.07,17.0,24.0,,00.0,0652.0,30.9
2021-03-07T21:16:00Z,00000200,01000000,0000.38,0000.23,0000.04,0000.54,0000.15,0000.42,0000.19,-000.16,-000.27,17.1,24.0,00.0,00.0,0652.0,30.9
2021-03-07T21:17:00Z,00000200,01000000,0000.16,0000.30,0000.14,0000.12,0000.24,-000.11,0000.03,0000.27,0000.11,17.2,24.0,00.0,00.0,0652.0,30.9
2021-03-07T21:18:00Z,00000200,01000000,0000.40,0000.44,-000.07,0000.34,0000.11,0000.08,0000.22,0000.15,0000.47,17.3,24.0,00.0,00.0,0651.9,30.9
2021-03-07T21:19:00Z,00000200,01000000,0000.44,0000.09,-000.05,0000.21,0000.27,0000.11,0000.11,0000.31,0000.34,17.3,24.1,00.0,00.0,0651.9,30.9
2021-03-07T21:20:00Z,00000200,01000000,0000.56,-000.07,0000.03,-000.04,0000.03,-000.07,0000.03,-000.16,-000.37,17.4,24.1,,00.0,0651.9,31.0
2021-03-07T21:21:00Z,00000200,01000000,0000.75,0000.35,0000.23,0000.49,-000.02,0000.24,0000.14,0000.19,0000.23,17.4,24.1,00.0,00.0,0651.9,31.0
2021-03-07T21:22:00Z,00000200,01000000,0000.10,0000.24,0000.12,0000.59,0000.21,-000.22,0000.16,0000.11,0000.10,17.4,24.1,00.0,00.0,0652.0,30.9
2021-03-07T21:23:00Z,00000200,01000000,0000.22,0000.45,0000.22,0000.43,-000.06,0000.06,-000.30,-000.03,0000.01,17.3,24.1,00.0,00.0,0651.9,30.9
2021-03-07T21:24:00Z,00000200,01000000,0000.84,0000.16,0000.21,0000.59,-000.09,0000.11,0000.16,0000.12,-000.27,17.3,24.1,00.0,00.0,0651.9,30.9
2021-03-07T21:25:00Z,00000200,01000000,-000.22,0000.28,0000.35,0000.29,0000.06,0000.02,0000.37,0000.03,0000.36,17.3,24.1,00.0,00.0,0651.9,30.9
2021-03-07T21:26:00Z,00000200,01000000,0000.49,0000.31,0000.27,0000.37,0000.22,0000.09,0000.02,0000.04,0000.09,17.3,24.1,,00.0,0651.9,30.9
2021-03-07T21:27:00Z,00000200,01000000,0000.63,0000.11,0000.23,0000.20,0000.13,0000.13,0000.14,-000.01,-000.19,17.3,24.1,,00.0,0652.0,30.9
2021-03-07T21:28:00Z,00000200,01000000,0000.47,0000.24,-000.01,0000.71,0000.04,-000.05,-000.14,0000.28,0000.39,17.2,24.1,00.0,00.0,0651.9,30.9
2021-03-07T21:29:00Z,00000200,01000000,0000.60,0000.22,0000.12,0000.30,-000.08,0000.02,0000.09,-000.14,-000.09,17.2,24.0,00.0,00.0,0651.9,30.9
2021-03-07T21:30:00Z,00000200,01000000,0000.01,0000.33,-000.11,0000.34,0000.13,0000.07,0000.13,0000.31,0000.09,17.3,24.1,00.0,00.0,0651.9,30.9
2021-03-07T21:31:00Z,00000200,01000000,0000.31,0000.35,0000.11,0000.29,-000.13,0000.04,-000.03,0000.04,0000.55,17.3,24.1,00.0,00.0,0651.9,30.9
2021-03-07T21:32:00Z,00000200,01000000,0000.84,0000.18,0000.01,0000.02,0000.09,0000.16,0000.54,0000.31,-000.14,17.4,24.1,00.0,00.0,0651.9,31.0
2021-03-07T21:33:00Z,00000200,01000000,0000.51,0000.18,0000.08,0000.35,0000.24,0000.25,0000.24,0000.05,-000.08,17.5,24.2,00.0,00.0,0651.9,31.0
2021-03-07T21:34:00Z,00000200,01000000,0000.43,0000.03,0000.18,0000.15,0000.15,0000.02,-000.27,0000.23,-000.05,17.5,24.2,00.0,00.0,0651.9,31.0
2021-03-07T21:35:00Z,00000200,01000000,0000.45,0000.26,0000.10,0000.16,0000.17,0000.14,0000.22,-000.17,0000.26,17.5,24.2,00.0,00.0,0651.8,30.9
2021-03-07T21:36:00Z,00000200,01000000,-000.02,0000.14,0000.12,0000.25,-000.11,0000.01,0000.24,0000.30,-000.27,17.5,24.2,00.0,00.0,0651.8,30.9
2021-03-07T21:37:00Z,00000200,01000000,0000.29,0000.27,0000.04,-000.07,-000.05,-000.02,-000.22,0000.04,0000.39,17.4,24.2,00.0,00.0,0651.8,30.9
2021-03-07T21:38:00Z,00000200,01000000,0000.27,-000.02,0000.04,0000.54,0000.24,-000.08,0000.24,0000.00,0000.18,17.4,24.2,00.0,00.0,0651.8,30.9
2021-03-07T21:39:00Z,00000200,01000000,-000.33,0000.25,0000.29,0000.54,0000.05,0000.10,-000.07,0000.10,-000.06,17.4,24.2,00.0,00.0,0651.8,30.9
2021-03-07T21:40:00Z,00000200,01000000,0000.40,0000.12,0000.22,0000.13,0000.18,-000.02,0000.38,0000.27,0000.18,17.4,24.1,00.0,00.0,0651.8,30.9
2021-03-07T21:41:00Z,00000200,01000000,0000.26,0000.10,0000.36,-000.28,-000.07,0000.23,0000.21,-000.17,0000.00,17.4,24.1,00.0,00.0,0651.8,31.0
2021-03-07T21:42:00Z,00000200,01000000,0000.92,0000.29,0000.21,0000.42,-000.16,0000.05,-000.31,-000.28,-000.10,17.4,24.1,00.0,00.0,0651.8,31.0
2021-03-07T21:43:00Z,00000200,01000000,0000.94,0000.40,0000.02,0000.20,0000.09,0000.13,0000.45,0000.55,0000.28,17.3,24.1,00.0,00.0,0651.8,30.9
2021-03-07T21:44:00Z,00000200,01000000,0000.70,0000.33,-000.16,0000.20,0000.15,-000.19,0000.06,0000.01,0000.02,17.3,24.1,00.0,00.0,0651.8,30.9
2021-03-07T21:45:00Z,00000200,01000000,0000.75,0000.47,-000.03,0000.27,-000.15,0000.05,-000.07,0000.03,0000.02,17.4,24.1,00.0,00.0,0651.8,30.9
2021-03-07T21:46:00Z,00000200,01000000,0000.36,0000.26,0000.12,0000.47,0000.04,0000.07,0000.48,0000.68,0000.33,17.4,24.1,00.0,00.0,0651.7,30.9
2021-03-07T21:47:00Z,00000200,01000000,0000.34,0000.03,0000.22,0000.06,-000.03,0000.01,-000.02,-000.19,0000.01,17.5,24.2,00.1,00.0,0651.8,31.0
2021-03-07T21:48:00Z,00000200,01000000,0000.44,0000.45,-000.11,0000.41,0000.11,-000.22,0000.17,0000.16,0000.37,17.6,24.2,00.1,00.0,0651.8,31.0
2021-03-07T21:49:00Z,00000200,01000000,0000.37,0000.48,0000.25,0000.06,0000.07,0000.08,0000.05,0000.41,-000.01,17.6,24.2,00.1,00.0,0651.8,31.0
2021-03-07T21:50:00Z,00000200,01000000,0000.30,0000.03,0000.11,-000.11,-000.14,0000.11,-000.02,-000.17,-000.20,17.7,24.3,00.1,00.1,0651.7,31.0
2021-03-07T21:51:00Z,00000200,01000000,0000.17,0000.20,0000.27,-000.14,-000.10,0000.16,0000.09,-000.22,0000.09,17.7,24.3,00.0,00.0,0651.7,31.0
2021-03-07T21:52:00Z,00000200,01000000,0000.30,0000.32,-000.01,0000.37,0000.09,0000.25,0000.11,0000.40,0000.14,17.6,24.3,00.1,00.0,0651.7,31.0
2021-03-07T21:53:00Z,00000200,01000000,0000.65,0000.53,-000.13,-000.04,0000.17,-000.18,0000.09,0000.25,0000.07,17.6,24.3,00.1,00.0,0651.7,31.0
2021-03-07T21:54:00Z,00000200,01000000,0000.85,0000.43,0000.16,0000.28,0000.14,0000.15,0000.21,-000.10,-000.07,17.6,24.3,00.1,00.1,0651.7,31.0
2021-03-07T21:55:00Z,00000200,01000000,0000.67,0000.23,-000.03,0000.02,0000.14,0000.09,0000.03,0000.18,0000.17,17.5,24.3,00.1,00.1,0651.7,30.9
2021-03-07T21:56:00Z,00000200,01000000,0000.17,0000.17,0000.10,0000.07,0000.21,0000.16,0000.10,0000.22,0000.10,17.5,24.2,00.1,00.1,0651.7,30.9
2021-03-07T21:57:00Z,00000200,41000000,,,,,,,0000.10,-000.33,-000.11,17.5,24.3,,00.0,0651.7,30.9
2021-03-07T21:58:00Z,00000200,61000000,,,,,,,-000.05,-000.12,-000.13,17.2,24.4,,00.0,0650.8,30.9
2021-03-07T21:59:00Z,00000200,21000000,,,,,,,-000.13,-000.13,0000.15,17.2,24.5,,00.0,0650.8,30.9
